Time,TemperatureF,DewpointF,PressureIn,WindDirection,WindDirectionDegrees,WindSpeedMPH,WindSpeedGustMPH,Humidity,HourlyPrecipIn,Conditions,Clouds,dailyrainin,SoftwareType,DateUTC
2013-01-26 00:00:00,18.4,16.0,30.07,West,270,5.8,7.5,85,0.00,,,0.00,Rainwise IP-100,2013-01-26 05:00:00,
2013-01-26 00:05:00,18.4,16.0,30.07,West,270,4.9,6.1,85,0.00,,,0.00,Rainwise IP-100,2013-01-26 05:05:00,
2013-01-26 00:10:00,18.4,16.0,30.06,WNW,292,3.0,5.1,86,0.00,,,0.00,Rainwise IP-100,2013-01-26 05:10:00,
2013-01-26 00:15:00,18.4,16.0,30.06,WNW,292,2.8,5.1,86,0.00,,,0.00,Rainwise IP-100,2013-01-26 05:15:00,
2013-01-26 00:20:00,18.3,16.0,30.06,NNW,337,3.0,4.2,86,0.00,,,0.00,Rainwise IP-100,2013-01-26 05:20:00,
2013-01-26 00:25:00,18.2,16.0,30.06,NW,315,3.7,4.2,86,0.00,,,0.00,Rainwise IP-100,2013-01-26 05:25:00,
2013-01-26 00:30:00,18.1,16.0,30.07,WNW,292,3.7,4.4,86,0.00,,,0.00,Rainwise IP-100,2013-01-26 05:30:00,
2013-01-26 00:35:00,18.1,16.0,30.06,WNW,292,3.3,3.7,86,0.00,,,0.00,Rainwise IP-100,2013-01-26 05:35:00,
2013-01-26 00:41:00,17.9,16.0,30.06,WNW,292,3.5,4.7,86,0.00,,,0.00,Rainwise IP-100,2013-01-26 05:41:00,
2013-01-26 00:46:00,17.8,16.0,30.06,WNW,292,3.5,4.7,87,0.00,,,0.00,Rainwise IP-100,2013-01-26 05:46:00,
2013-01-26 00:51:00,17.8,16.0,30.06,WNW,292,2.8,4.7,87,0.00,,,0.00,Rainwise IP-100,2013-01-26 05:51:00,
2013-01-26 00:56:00,17.7,16.0,30.06,WNW,292,4.0,5.8,87,0.00,,,0.00,Rainwise IP-100,2013-01-26 05:56:00,
2013-01-26 01:01:00,17.7,16.0,30.06,WNW,292,3.5,5.1,87,0.00,,,0.00,Rainwise IP-100,2013-01-26 06:01:00,
2013-01-26 01:06:00,17.6,16.0,30.07,WNW,292,5.8,7.5,87,0.00,,,0.00,Rainwise IP-100,2013-01-26 06:06:00,
2013-01-26 01:11:00,17.5,16.0,30.06,West,270,5.1,6.1,87,0.00,,,0.00,Rainwise IP-100,2013-01-26 06:11:00,
2013-01-26 01:16:00,17.5,16.0,30.06,WNW,292,7.9,8.4,87,0.00,,,0.00,Rainwise IP-100,2013-01-26 06:16:00,
2013-01-26 01:21:00,17.5,16.0,30.06,WNW,292,4.9,8.4,87,0.00,,,0.00,Rainwise IP-100,2013-01-26 06:21:00,
2013-01-26 01:27:00,17.5,16.0,30.06,WNW,292,5.1,7.9,87,0.00,,,0.00,Rainwise IP-100,2013-01-26 06:27:00,
2013-01-26 01:32:00,17.5,16.0,30.06,WNW,292,4.0,7.7,87,0.00,,,0.00,Rainwise IP-100,2013-01-26 06:32:00,
2013-01-26 01:37:00,17.5,16.0,30.06,WNW,292,5.1,6.5,87,0.00,,,0.00,Rainwise IP-100,2013-01-26 06:37:00,
2013-01-26 01:42:00,17.5,16.0,30.06,WNW,292,4.0,6.5,87,0.00,,,0.00,Rainwise IP-100,2013-01-26 06:42:00,
2013-01-26 01:47:00,17.4,16.0,30.06,NW,315,1.9,5.4,87,0.00,,,0.00,Rainwise IP-100,2013-01-26 06:47:00,
2013-01-26 01:52:00,17.3,16.0,30.06,WNW,292,4.9,5.1,87,0.00,,,0.00,Rainwise IP-100,2013-01-26 06:52:00,
2013-01-26 01:57:00,17.1,16.0,30.06,WNW,292,4.9,5.4,87,0.00,,,0.00,Rainwise IP-100,2013-01-26 06:57:00,
2013-01-26 02:02:00,17.1,16.0,30.06,West,270,6.5,6.8,87,0.00,,,0.00,Rainwise IP-100,2013-01-26 07:02:00,
2013-01-26 02:08:00,17.0,16.0,30.06,West,270,7.2,9.8,86,0.00,,,0.00,Rainwise IP-100,2013-01-26 07:08:00,
2013-01-26 02:13:00,17.0,16.0,30.06,WNW,292,6.3,8.9,86,0.00,,,0.00,Rainwise IP-100,2013-01-26 07:13:00,
2013-01-26 02:18:00,17.1,16.0,30.06,WNW,292,5.8,8.6,86,0.00,,,0.00,Rainwise IP-100,2013-01-26 07:18:00,
2013-01-26 02:23:00,17.2,16.0,30.05,WNW,292,5.4,8.6,86,0.00,,,0.00,Rainwise IP-100,2013-01-26 07:23:00,
2013-01-26 02:28:00,17.3,16.0,30.06,WNW,292,5.1,7.5,86,0.00,,,0.00,Rainwise IP-100,2013-01-26 07:28:00,
2013-01-26 02:33:00,17.2,16.0,30.06,WNW,292,5.8,7.5,86,0.00,,,0.00,Rainwise IP-100,2013-01-26 07:33:00,
2013-01-26 02:38:00,17.2,16.0,30.06,West,270,7.9,8.9,86,0.00,,,0.00,Rainwise IP-100,2013-01-26 07:38:00,
2013-01-26 02:44:00,17.1,16.0,30.06,West,270,7.0,9.8,85,0.00,,,0.00,Rainwise IP-100,2013-01-26 07:44:00,
2013-01-26 02:49:00,17.0,16.0,30.05,WNW,292,6.8,8.2,85,0.00,,,0.00,Rainwise IP-100,2013-01-26 07:49:00,
2013-01-26 02:54:00,17.0,16.0,30.06,WNW,292,7.2,8.4,85,0.00,,,0.00,Rainwise IP-100,2013-01-26 07:54:00,
2013-01-26 02:59:00,17.0,16.0,30.05,WNW,292,5.6,7.5,85,0.00,,,0.00,Rainwise IP-100,2013-01-26 07:59:00,
2013-01-26 03:04:00,16.9,16.0,30.05,WNW,292,5.1,7.7,85,0.00,,,0.00,Rainwise IP-100,2013-01-26 08:04:00,
2013-01-26 03:09:00,16.7,16.0,30.04,WNW,292,5.1,5.6,85,0.00,,,0.00,Rainwise IP-100,2013-01-26 08:09:00,
2013-01-26 03:14:00,16.7,16.0,30.04,NW,315,4.9,5.8,85,0.00,,,0.00,Rainwise IP-100,2013-01-26 08:14:00,
2013-01-26 03:19:00,16.6,16.0,30.04,WNW,292,6.5,6.8,86,0.00,,,0.00,Rainwise IP-100,2013-01-26 08:19:00,
2013-01-26 03:25:00,16.4,14.0,30.04,NW,315,6.8,6.8,86,0.00,,,0.00,Rainwise IP-100,2013-01-26 08:25:00,
2013-01-26 03:30:00,16.3,14.0,30.04,NW,315,2.3,6.8,86,0.00,,,0.00,Rainwise IP-100,2013-01-26 08:30:00,
2013-01-26 03:35:00,16.2,14.0,30.04,NNW,337,4.2,5.4,86,0.00,,,0.00,Rainwise IP-100,2013-01-26 08:35:00,
2013-01-26 03:40:00,16.0,14.0,30.04,NNW,337,3.0,4.9,86,0.00,,,0.00,Rainwise IP-100,2013-01-26 08:40:00,
2013-01-26 03:45:00,15.7,14.0,30.04,NNW,337,2.8,4.0,86,0.00,,,0.00,Rainwise IP-100,2013-01-26 08:45:00,
2013-01-26 03:50:00,15.6,14.0,30.04,NNW,337,4.4,5.6,86,0.00,,,0.00,Rainwise IP-100,2013-01-26 08:50:00,
2013-01-26 03:52:00,15.6,14.0,30.05,NNW,337,4.4,5.6,86,0.00,,,0.00,Rainwise IP-100,2013-01-26 08:52:00,
2013-01-26 03:53:00,15.6,14.0,30.04,NNW,337,5.1,5.6,86,0.00,,,0.00,Rainwise IP-100,2013-01-26 08:53:00,
2013-01-26 03:54:00,15.6,14.0,30.04,NNW,337,4.7,5.6,86,0.00,,,0.00,Rainwise IP-100,2013-01-26 08:54:00,
2013-01-26 03:57:00,15.6,14.0,30.05,NW,315,5.6,6.5,86,0.00,,,0.00,Rainwise IP-100,2013-01-26 08:57:00,
2013-01-26 03:59:00,15.6,14.0,30.04,NNW,337,6.3,7.5,86,0.00,,,0.00,Rainwise IP-100,2013-01-26 08:59:00,
2013-01-26 04:00:00,15.7,14.0,30.05,NNW,337,5.1,7.5,86,0.00,,,0.00,Rainwise IP-100,2013-01-26 09:00:00,
2013-01-26 04:01:00,15.7,14.0,30.04,NNW,337,6.1,7.5,86,0.00,,,0.00,Rainwise IP-100,2013-01-26 09:01:00,
2013-01-26 04:04:00,15.7,14.0,30.05,NNW,337,7.0,8.6,86,0.00,,,0.00,Rainwise IP-100,2013-01-26 09:04:00,
2013-01-26 04:06:00,15.8,14.0,30.05,NNW,337,8.9,8.9,86,0.00,,,0.00,Rainwise IP-100,2013-01-26 09:06:00,
2013-01-26 04:07:00,15.8,14.0,30.05,NNW,337,8.2,8.9,86,0.00,,,0.00,Rainwise IP-100,2013-01-26 09:07:00,
2013-01-26 04:10:00,15.8,14.0,30.04,NW,315,7.7,8.9,85,0.00,,,0.00,Rainwise IP-100,2013-01-26 09:10:00,
2013-01-26 04:13:00,15.9,14.0,30.04,NW,315,7.2,8.9,85,0.00,,,0.00,Rainwise IP-100,2013-01-26 09:13:00,
2013-01-26 04:18:00,15.9,14.0,30.04,NNW,337,8.2,10.0,85,0.00,,,0.00,Rainwise IP-100,2013-01-26 09:18:00,
2013-01-26 04:23:00,15.9,14.0,30.04,NNW,337,6.5,9.8,85,0.00,,,0.00,Rainwise IP-100,2013-01-26 09:23:00,
2013-01-26 04:28:00,15.7,14.0,30.04,NW,315,8.4,10.0,85,0.00,,,0.00,Rainwise IP-100,2013-01-26 09:28:00,
2013-01-26 04:33:00,15.5,14.0,30.05,NW,315,5.4,8.6,85,0.00,,,0.00,Rainwise IP-100,2013-01-26 09:33:00,
2013-01-26 04:38:00,15.4,14.0,30.05,NNW,337,7.0,7.9,85,0.00,,,0.00,Rainwise IP-100,2013-01-26 09:38:00,
2013-01-26 04:43:00,15.4,14.0,30.05,NNW,337,7.0,9.6,85,0.00,,,0.00,Rainwise IP-100,2013-01-26 09:43:00,
2013-01-26 04:49:00,15.3,14.0,30.05,NW,315,7.2,9.3,85,0.00,,,0.00,Rainwise IP-100,2013-01-26 09:49:00,
2013-01-26 04:50:00,15.2,14.0,30.05,NW,315,6.8,9.3,85,0.00,,,0.00,Rainwise IP-100,2013-01-26 09:50:00,
2013-01-26 04:51:00,15.2,14.0,30.05,NNW,337,6.5,9.3,85,0.00,,,0.00,Rainwise IP-100,2013-01-26 09:51:00,
2013-01-26 04:52:00,15.3,14.0,30.05,NNW,337,10.0,10.0,85,0.00,,,0.00,Rainwise IP-100,2013-01-26 09:52:00,
2013-01-26 04:55:00,15.2,14.0,30.05,NNW,337,11.2,11.2,84,0.00,,,0.00,Rainwise IP-100,2013-01-26 09:55:00,
2013-01-26 04:56:00,15.2,14.0,30.05,NNW,337,9.6,12.1,84,0.00,,,0.00,Rainwise IP-100,2013-01-26 09:56:00,
2013-01-26 04:57:00,15.2,14.0,30.05,NW,315,9.1,12.1,84,0.00,,,0.00,Rainwise IP-100,2013-01-26 09:57:00,
2013-01-26 05:02:00,15.4,14.0,30.05,NNW,337,9.6,11.2,84,0.00,,,0.00,Rainwise IP-100,2013-01-26 10:02:00,
2013-01-26 05:07:00,15.5,14.0,30.05,NNW,337,8.9,12.8,85,0.00,,,0.00,Rainwise IP-100,2013-01-26 10:07:00,
2013-01-26 05:12:00,15.5,14.0,30.06,NW,315,10.7,13.5,84,0.00,,,0.00,Rainwise IP-100,2013-01-26 10:12:00,
2013-01-26 05:17:00,15.5,14.0,30.05,NNW,337,9.3,13.8,84,0.00,,,0.00,Rainwise IP-100,2013-01-26 10:17:00,
2013-01-26 05:22:00,15.5,14.0,30.06,NW,315,9.8,14.2,84,0.00,,,0.00,Rainwise IP-100,2013-01-26 10:22:00,
2013-01-26 05:28:00,15.5,14.0,30.06,NW,315,10.7,12.8,84,0.00,,,0.00,Rainwise IP-100,2013-01-26 10:28:00,
2013-01-26 05:33:00,15.5,14.0,30.06,NNW,337,9.8,13.3,84,0.00,,,0.00,Rainwise IP-100,2013-01-26 10:33:00,
2013-01-26 05:38:00,15.5,14.0,30.06,NW,315,10.0,13.5,84,0.00,,,0.00,Rainwise IP-100,2013-01-26 10:38:00,
2013-01-26 05:43:00,15.4,14.0,30.07,NW,315,8.6,12.8,84,0.00,,,0.00,Rainwise IP-100,2013-01-26 10:43:00,
2013-01-26 05:48:00,15.4,14.0,30.06,NNW,337,7.0,10.5,85,0.00,,,0.00,Rainwise IP-100,2013-01-26 10:48:00,
2013-01-26 05:53:00,15.3,14.0,30.07,NW,315,8.9,11.4,85,0.00,,,0.00,Rainwise IP-100,2013-01-26 10:53:00,
2013-01-26 05:58:00,15.3,14.0,30.07,NW,315,7.9,11.7,85,0.00,,,0.00,Rainwise IP-100,2013-01-26 10:58:00,
2013-01-26 06:03:00,15.3,14.0,30.08,NW,315,7.9,10.5,85,0.00,,,0.00,Rainwise IP-100,2013-01-26 11:03:00,
2013-01-26 06:08:00,15.4,14.0,30.08,NW,315,9.8,10.7,85,0.00,,,0.00,Rainwise IP-100,2013-01-26 11:08:00,
2013-01-26 06:14:00,15.3,14.0,30.08,NW,315,9.3,10.7,85,0.00,,,0.00,Rainwise IP-100,2013-01-26 11:14:00,
2013-01-26 06:19:00,15.2,14.0,30.09,NW,315,6.5,10.3,85,0.00,,,0.00,Rainwise IP-100,2013-01-26 11:19:00,
2013-01-26 06:24:00,15.2,14.0,30.09,WNW,292,8.2,12.1,84,0.00,,,0.00,Rainwise IP-100,2013-01-26 11:24:00,
2013-01-26 06:29:00,15.3,14.0,30.09,WNW,292,7.9,9.6,84,0.00,,,0.00,Rainwise IP-100,2013-01-26 11:29:00,
2013-01-26 06:34:00,15.4,14.0,30.09,NW,315,7.2,9.8,85,0.00,,,0.00,Rainwise IP-100,2013-01-26 11:34:00,
2013-01-26 06:39:00,15.4,14.0,30.09,NW,315,10.3,11.4,85,0.00,,,0.00,Rainwise IP-100,2013-01-26 11:39:00,
2013-01-26 06:44:00,15.4,14.0,30.09,NW,315,12.4,13.8,84,0.00,,,0.00,Rainwise IP-100,2013-01-26 11:44:00,
2013-01-26 06:50:00,15.4,14.0,30.09,WNW,292,10.5,12.8,84,0.00,,,0.00,Rainwise IP-100,2013-01-26 11:50:00,
2013-01-26 06:55:00,15.5,14.0,30.09,NNW,337,9.3,13.1,84,0.00,,,0.00,Rainwise IP-100,2013-01-26 11:55:00,
2013-01-26 07:00:00,15.5,14.0,30.09,NW,315,10.0,12.8,84,0.00,,,0.00,Rainwise IP-100,2013-01-26 12:00:00,
2013-01-26 07:05:00,15.5,14.0,30.09,NNW,337,11.2,13.1,84,0.00,,,0.00,Rainwise IP-100,2013-01-26 12:05:00,
2013-01-26 07:10:00,15.3,14.0,30.09,NW,315,8.6,14.0,84,0.00,,,0.00,Rainwise IP-100,2013-01-26 12:10:00,
2013-01-26 07:15:00,15.1,14.0,30.10,NW,315,8.4,14.5,84,0.00,,,0.00,Rainwise IP-100,2013-01-26 12:15:00,
2013-01-26 07:20:00,15.0,14.0,30.10,NNW,337,8.4,12.8,84,0.00,,,0.00,Rainwise IP-100,2013-01-26 12:20:00,
2013-01-26 07:25:00,15.0,14.0,30.10,NW,315,9.8,13.3,84,0.00,,,0.00,Rainwise IP-100,2013-01-26 12:25:00,
2013-01-26 07:31:00,15.1,14.0,30.11,NW,315,9.8,13.1,84,0.00,,,0.00,Rainwise IP-100,2013-01-26 12:31:00,
2013-01-26 07:36:00,15.2,14.0,30.10,NW,315,10.3,13.3,84,0.00,,,0.00,Rainwise IP-100,2013-01-26 12:36:00,
2013-01-26 07:41:00,15.2,14.0,30.11,NNW,337,11.9,13.5,84,0.00,,,0.00,Rainwise IP-100,2013-01-26 12:41:00,
2013-01-26 07:46:00,15.2,11.0,30.11,NNW,337,8.2,13.8,83,0.00,,,0.00,Rainwise IP-100,2013-01-26 12:46:00,
2013-01-26 07:51:00,15.4,11.0,30.12,NW,315,11.4,13.3,83,0.00,,,0.00,Rainwise IP-100,2013-01-26 12:51:00,
2013-01-26 07:56:00,15.7,11.0,30.12,NW,315,9.6,14.7,83,0.00,,,0.00,Rainwise IP-100,2013-01-26 12:56:00,
2013-01-26 08:01:00,15.8,11.0,30.13,NNW,337,13.3,14.5,82,0.00,,,0.00,Rainwise IP-100,2013-01-26 13:01:00,
2013-01-26 08:07:00,15.9,11.0,30.12,NNW,337,10.5,16.8,81,0.00,,,0.00,Rainwise IP-100,2013-01-26 13:07:00,
2013-01-26 08:12:00,16.1,11.0,30.12,NNW,337,16.6,16.6,81,0.00,,,0.00,Rainwise IP-100,2013-01-26 13:12:00,
2013-01-26 08:17:00,16.2,11.0,30.13,NW,315,9.8,15.9,80,0.00,,,0.00,Rainwise IP-100,2013-01-26 13:17:00,
2013-01-26 08:22:00,16.4,11.0,30.12,NNW,337,14.9,18.0,80,0.00,,,0.00,Rainwise IP-100,2013-01-26 13:22:00,
2013-01-26 08:27:00,16.5,14.0,30.13,NNW,337,13.8,16.1,80,0.00,,,0.00,Rainwise IP-100,2013-01-26 13:27:00,
2013-01-26 08:32:00,16.5,14.0,30.14,NNW,337,12.1,17.5,79,0.00,,,0.00,Rainwise IP-100,2013-01-26 13:32:00,
2013-01-26 08:37:00,16.5,14.0,30.14,NNW,337,12.1,15.9,78,0.00,,,0.00,Rainwise IP-100,2013-01-26 13:37:00,
2013-01-26 08:42:00,16.6,14.0,30.14,NW,315,12.4,16.3,78,0.00,,,0.00,Rainwise IP-100,2013-01-26 13:42:00,
2013-01-26 08:48:00,16.7,14.0,30.14,NNW,337,14.0,17.0,77,0.00,,,0.00,Rainwise IP-100,2013-01-26 13:48:00,
2013-01-26 08:53:00,16.8,14.0,30.14,NW,315,16.8,16.8,77,0.00,,,0.00,Rainwise IP-100,2013-01-26 13:53:00,
2013-01-26 08:58:00,17.1,14.0,30.14,NW,315,16.1,17.5,76,0.00,,,0.00,Rainwise IP-100,2013-01-26 13:58:00,
2013-01-26 09:03:00,17.1,14.0,30.14,NW,315,13.3,21.0,76,0.00,,,0.00,Rainwise IP-100,2013-01-26 14:03:00,
2013-01-26 09:08:00,17.1,14.0,30.13,NNW,337,13.8,18.2,76,0.00,,,0.00,Rainwise IP-100,2013-01-26 14:08:00,
2013-01-26 09:13:00,17.2,14.0,30.14,NNW,337,10.5,18.7,75,0.00,,,0.00,Rainwise IP-100,2013-01-26 14:13:00,
2013-01-26 09:18:00,17.3,11.0,30.14,NNW,337,12.1,16.6,74,0.00,,,0.00,Rainwise IP-100,2013-01-26 14:18:00,
2013-01-26 09:24:00,17.5,11.0,30.14,NNW,337,7.7,15.2,74,0.00,,,0.00,Rainwise IP-100,2013-01-26 14:24:00,
2013-01-26 09:29:00,17.9,11.0,30.15,NNW,337,7.5,13.5,74,0.00,,,0.00,Rainwise IP-100,2013-01-26 14:29:00,
2013-01-26 09:34:00,18.0,11.0,30.15,NNW,337,7.2,14.9,73,0.00,,,0.00,Rainwise IP-100,2013-01-26 14:34:00,
2013-01-26 09:39:00,18.0,11.0,30.15,NW,315,15.9,16.6,73,0.00,,,0.00,Rainwise IP-100,2013-01-26 14:39:00,
2013-01-26 09:44:00,18.0,11.0,30.15,NNW,337,9.6,17.3,73,0.00,,,0.00,Rainwise IP-100,2013-01-26 14:44:00,
2013-01-26 09:49:00,18.1,11.0,30.16,NNW,337,11.0,16.3,72,0.00,,,0.00,Rainwise IP-100,2013-01-26 14:49:00,
2013-01-26 09:54:00,18.4,11.0,30.16,NW,315,8.9,14.9,72,0.00,,,0.00,Rainwise IP-100,2013-01-26 14:54:00,
2013-01-26 09:59:00,18.4,11.0,30.15,NNW,337,10.3,16.6,71,0.00,,,0.00,Rainwise IP-100,2013-01-26 14:59:00,
2013-01-26 10:05:00,18.4,11.0,30.16,NNW,337,9.1,16.3,71,0.00,,,0.00,Rainwise IP-100,2013-01-26 15:05:00,
2013-01-26 10:10:00,18.6,14.0,30.16,NNW,337,11.2,15.4,71,0.00,,,0.00,Rainwise IP-100,2013-01-26 15:10:00,
2013-01-26 10:15:00,18.7,14.0,30.16,NNW,337,9.8,16.8,71,0.00,,,0.00,Rainwise IP-100,2013-01-26 15:15:00,
2013-01-26 10:20:00,18.8,14.0,30.16,WNW,292,14.9,21.2,71,0.00,,,0.00,Rainwise IP-100,2013-01-26 15:20:00,
2013-01-26 10:25:00,18.8,14.0,30.16,NW,315,10.3,21.0,70,0.00,,,0.00,Rainwise IP-100,2013-01-26 15:25:00,
2013-01-26 10:30:00,18.9,14.0,30.16,WNW,292,14.2,16.8,69,0.00,,,0.00,Rainwise IP-100,2013-01-26 15:30:00,
2013-01-26 10:35:00,19.0,11.0,30.16,NW,315,17.0,22.2,68,0.00,,,0.00,Rainwise IP-100,2013-01-26 15:35:00,
2013-01-26 10:41:00,19.0,11.0,30.16,WNW,292,14.2,18.7,67,0.00,,,0.00,Rainwise IP-100,2013-01-26 15:41:00,
2013-01-26 10:46:00,19.1,11.0,30.16,NNW,337,9.3,16.6,67,0.00,,,0.00,Rainwise IP-100,2013-01-26 15:46:00,
2013-01-26 10:51:00,19.7,11.0,30.15,NW,315,6.1,14.2,67,0.00,,,0.00,Rainwise IP-100,2013-01-26 15:51:00,
2013-01-26 10:56:00,20.1,11.0,30.15,NNW,337,10.7,14.7,66,0.00,,,0.00,Rainwise IP-100,2013-01-26 15:56:00,
2013-01-26 11:01:00,19.9,11.0,30.16,NNW,337,10.0,14.7,66,0.00,,,0.00,Rainwise IP-100,2013-01-26 16:01:00,
2013-01-26 11:06:00,19.8,11.0,30.15,WNW,292,15.2,19.8,67,0.00,,,0.00,Rainwise IP-100,2013-01-26 16:06:00,
2013-01-26 11:11:00,19.9,11.0,30.16,NW,315,13.3,21.7,66,0.00,,,0.00,Rainwise IP-100,2013-01-26 16:11:00,
2013-01-26 11:16:00,19.8,11.0,30.15,WNW,292,14.9,18.4,65,0.00,,,0.00,Rainwise IP-100,2013-01-26 16:16:00,
2013-01-26 11:22:00,19.8,11.0,30.16,NW,315,17.0,21.5,65,0.00,,,0.00,Rainwise IP-100,2013-01-26 16:22:00,
2013-01-26 11:27:00,19.9,11.0,30.15,NNW,337,12.1,18.9,65,0.00,,,0.00,Rainwise IP-100,2013-01-26 16:27:00,
2013-01-26 11:32:00,20.1,11.0,30.15,NNW,337,14.5,14.5,65,0.00,,,0.00,Rainwise IP-100,2013-01-26 16:32:00,
2013-01-26 11:37:00,20.3,11.0,30.15,WNW,292,14.2,17.5,65,0.00,,,0.00,Rainwise IP-100,2013-01-26 16:37:00,
2013-01-26 11:42:00,20.3,11.0,30.15,WNW,292,19.4,19.6,65,0.00,,,0.00,Rainwise IP-100,2013-01-26 16:42:00,
2013-01-26 11:47:00,20.2,11.0,30.14,WNW,292,12.6,20.8,65,0.00,,,0.00,Rainwise IP-100,2013-01-26 16:47:00,
2013-01-26 11:52:00,20.2,11.0,30.14,West,270,10.0,19.6,64,0.00,,,0.00,Rainwise IP-100,2013-01-26 16:52:00,
2013-01-26 11:58:00,20.5,11.0,30.14,WNW,292,20.8,20.8,65,0.00,,,0.00,Rainwise IP-100,2013-01-26 16:58:00,
2013-01-26 12:03:00,20.6,11.0,30.15,West,270,13.8,21.7,65,0.00,,,0.00,Rainwise IP-100,2013-01-26 17:03:00,
2013-01-26 12:08:00,20.6,11.0,30.15,WNW,292,10.3,20.5,65,0.00,,,0.00,Rainwise IP-100,2013-01-26 17:08:00,
2013-01-26 12:13:00,20.7,11.0,30.15,WNW,292,7.7,17.3,65,0.00,,,0.00,Rainwise IP-100,2013-01-26 17:13:00,
2013-01-26 12:18:00,21.1,11.0,30.15,NW,315,9.1,18.7,65,0.00,,,0.00,Rainwise IP-100,2013-01-26 17:18:00,
2013-01-26 12:23:00,21.3,11.0,30.13,WNW,292,19.1,23.1,65,0.00,,,0.00,Rainwise IP-100,2013-01-26 17:23:00,
2013-01-26 12:28:00,21.5,14.0,30.14,NNW,337,11.4,21.9,64,0.00,,,0.00,Rainwise IP-100,2013-01-26 17:28:00,
2013-01-26 12:34:00,21.7,14.0,30.14,WNW,292,16.3,20.5,63,0.00,,,0.00,Rainwise IP-100,2013-01-26 17:34:00,
2013-01-26 12:39:00,21.7,14.0,30.13,WNW,292,15.6,19.1,63,0.00,,,0.00,Rainwise IP-100,2013-01-26 17:39:00,
2013-01-26 12:44:00,21.8,11.0,30.13,WNW,292,10.7,20.3,62,0.00,,,0.00,Rainwise IP-100,2013-01-26 17:44:00,
2013-01-26 12:49:00,22.0,11.0,30.12,NW,315,17.3,21.2,62,0.00,,,0.00,Rainwise IP-100,2013-01-26 17:49:00,
2013-01-26 12:54:00,22.5,11.0,30.11,NNW,337,16.6,19.4,60,0.00,,,0.00,Rainwise IP-100,2013-01-26 17:54:00,
2013-01-26 12:59:00,22.9,11.0,30.12,NW,315,14.5,20.5,57,0.00,,,0.00,Rainwise IP-100,2013-01-26 17:59:00,
2013-01-26 13:04:00,23.0,11.0,30.11,NNW,337,14.5,19.8,55,0.00,,,0.00,Rainwise IP-100,2013-01-26 18:04:00,
2013-01-26 13:09:00,23.1,11.0,30.11,NNW,337,13.8,20.3,55,0.00,,,0.00,Rainwise IP-100,2013-01-26 18:09:00,
2013-01-26 13:14:00,23.3,8.0,30.11,NNW,337,13.5,20.1,54,0.00,,,0.00,Rainwise IP-100,2013-01-26 18:14:00,
2013-01-26 13:19:00,23.5,11.0,30.11,NNW,337,14.0,17.7,53,0.00,,,0.00,Rainwise IP-100,2013-01-26 18:19:00,
2013-01-26 13:25:00,23.5,11.0,30.11,WNW,292,13.3,23.1,52,0.00,,,0.00,Rainwise IP-100,2013-01-26 18:25:00,
2013-01-26 13:30:00,23.4,8.0,30.11,NNW,337,16.6,21.9,51,0.00,,,0.00,Rainwise IP-100,2013-01-26 18:30:00,
2013-01-26 13:35:00,23.5,11.0,30.12,WNW,292,11.9,26.3,51,0.00,,,0.00,Rainwise IP-100,2013-01-26 18:35:00,
2013-01-26 13:40:00,23.5,11.0,30.12,NNW,337,13.5,24.9,51,0.00,,,0.00,Rainwise IP-100,2013-01-26 18:40:00,
2013-01-26 13:42:00,23.6,11.0,30.12,North,360,15.2,25.2,50,0.00,,,0.00,Rainwise IP-100,2013-01-26 18:42:00,
2013-01-26 13:44:00,23.7,11.0,30.12,NNW,337,14.5,25.2,50,0.00,,,0.00,Rainwise IP-100,2013-01-26 18:44:00,
2013-01-26 13:49:00,24.1,8.0,30.12,NW,315,14.0,20.3,49,0.00,,,0.00,Rainwise IP-100,2013-01-26 18:49:00,
2013-01-26 13:54:00,24.5,11.0,30.12,NW,315,17.3,24.5,49,0.00,,,0.00,Rainwise IP-100,2013-01-26 18:54:00,
2013-01-26 13:59:00,24.6,11.0,30.12,NNW,337,17.7,22.2,49,0.00,,,0.00,Rainwise IP-100,2013-01-26 18:59:00,
2013-01-26 14:05:00,24.6,11.0,30.13,NNW,337,13.1,20.8,48,0.00,,,0.00,Rainwise IP-100,2013-01-26 19:05:00,
2013-01-26 14:10:00,24.9,11.0,30.13,NNW,337,17.0,17.3,48,0.00,,,0.00,Rainwise IP-100,2013-01-26 19:10:00,
2013-01-26 14:15:00,24.9,11.0,30.13,WNW,292,12.1,21.9,48,0.00,,,0.00,Rainwise IP-100,2013-01-26 19:15:00,
2013-01-26 14:20:00,24.8,11.0,30.13,NW,315,15.4,22.4,48,0.00,,,0.00,Rainwise IP-100,2013-01-26 19:20:00,
2013-01-26 14:25:00,24.7,11.0,30.13,NW,315,16.3,20.5,48,0.00,,,0.00,Rainwise IP-100,2013-01-26 19:25:00,
2013-01-26 14:30:00,24.9,11.0,30.12,NNW,337,17.3,24.5,47,0.00,,,0.00,Rainwise IP-100,2013-01-26 19:30:00,
2013-01-26 14:35:00,25.3,11.0,30.13,NNW,337,13.5,21.5,47,0.00,,,0.00,Rainwise IP-100,2013-01-26 19:35:00,
2013-01-26 14:41:00,25.6,11.0,30.13,NNW,337,14.0,18.9,47,0.00,,,0.00,Rainwise IP-100,2013-01-26 19:41:00,
2013-01-26 14:46:00,25.5,11.0,30.14,WNW,292,17.3,19.6,47,0.00,,,0.00,Rainwise IP-100,2013-01-26 19:46:00,
2013-01-26 14:51:00,25.5,11.0,30.13,NW,315,9.8,17.0,47,0.00,,,0.00,Rainwise IP-100,2013-01-26 19:51:00,
2013-01-26 14:56:00,25.7,11.0,30.13,NW,315,17.7,19.4,47,0.00,,,0.00,Rainwise IP-100,2013-01-26 19:56:00,
2013-01-26 15:01:00,25.9,11.0,30.14,NNW,337,14.5,21.2,47,0.00,,,0.00,Rainwise IP-100,2013-01-26 20:01:00,
2013-01-26 15:06:00,26.0,11.0,30.14,NW,315,17.0,17.7,47,0.00,,,0.00,Rainwise IP-100,2013-01-26 20:06:00,
2013-01-26 15:11:00,26.2,11.0,30.14,NW,315,7.9,17.0,47,0.00,,,0.00,Rainwise IP-100,2013-01-26 20:11:00,
2013-01-26 15:16:00,26.3,8.0,30.14,NNW,337,12.1,18.4,46,0.00,,,0.00,Rainwise IP-100,2013-01-26 20:16:00,
2013-01-26 15:21:00,26.4,8.0,30.15,NW,315,12.6,16.6,46,0.00,,,0.00,Rainwise IP-100,2013-01-26 20:21:00,
2013-01-26 15:27:00,26.5,11.0,30.15,NW,315,12.1,17.0,46,0.00,,,0.00,Rainwise IP-100,2013-01-26 20:27:00,
2013-01-26 15:32:00,26.6,11.0,30.15,WNW,292,13.8,20.5,46,0.00,,,0.00,Rainwise IP-100,2013-01-26 20:32:00,
2013-01-26 15:37:00,26.9,11.0,30.15,NW,315,7.2,15.6,46,0.00,,,0.00,Rainwise IP-100,2013-01-26 20:37:00,
2013-01-26 15:42:00,27.2,11.0,30.16,WNW,292,8.9,16.1,46,0.00,,,0.00,Rainwise IP-100,2013-01-26 20:42:00,
2013-01-26 15:47:00,27.4,11.0,30.15,WNW,292,17.5,20.5,46,0.00,,,0.00,Rainwise IP-100,2013-01-26 20:47:00,
2013-01-26 15:52:00,27.2,11.0,30.16,NNW,337,11.4,19.4,45,0.00,,,0.00,Rainwise IP-100,2013-01-26 20:52:00,
2013-01-26 15:57:00,27.2,11.0,30.15,NW,315,11.7,16.6,45,0.00,,,0.00,Rainwise IP-100,2013-01-26 20:57:00,
2013-01-26 16:03:00,27.4,11.0,30.15,NNW,337,11.0,14.2,45,0.00,,,0.00,Rainwise IP-100,2013-01-26 21:03:00,
2013-01-26 16:08:00,27.5,11.0,30.15,WNW,292,17.7,17.7,44,0.00,,,0.00,Rainwise IP-100,2013-01-26 21:08:00,
2013-01-26 16:13:00,27.5,8.0,30.15,NNW,337,12.1,20.1,43,0.00,,,0.00,Rainwise IP-100,2013-01-26 21:13:00,
2013-01-26 16:18:00,27.5,8.0,30.15,NNW,337,11.4,15.9,43,0.00,,,0.00,Rainwise IP-100,2013-01-26 21:18:00,
2013-01-26 16:23:00,27.5,8.0,30.16,NNW,337,8.6,14.0,43,0.00,,,0.00,Rainwise IP-100,2013-01-26 21:23:00,
2013-01-26 16:28:00,27.4,8.0,30.16,NNW,337,7.7,12.8,43,0.00,,,0.00,Rainwise IP-100,2013-01-26 21:28:00,
2013-01-26 16:33:00,27.4,8.0,30.16,NW,315,11.2,16.1,43,0.00,,,0.00,Rainwise IP-100,2013-01-26 21:33:00,
2013-01-26 16:38:00,27.4,8.0,30.16,NNW,337,10.0,16.3,43,0.00,,,0.00,Rainwise IP-100,2013-01-26 21:38:00,
2013-01-26 16:44:00,27.3,8.0,30.16,NNW,337,11.0,17.5,43,0.00,,,0.00,Rainwise IP-100,2013-01-26 21:44:00,
2013-01-26 16:49:00,27.1,8.0,30.16,NNW,337,8.9,18.7,43,0.00,,,0.00,Rainwise IP-100,2013-01-26 21:49:00,
2013-01-26 16:51:00,27.0,11.0,30.17,NW,315,13.5,18.7,44,0.00,,,0.00,Rainwise IP-100,2013-01-26 21:51:00,
2013-01-26 16:56:00,26.9,11.0,30.17,NW,315,9.8,15.6,44,0.00,,,0.00,Rainwise IP-100,2013-01-26 21:56:00,
2013-01-26 17:01:00,26.8,11.0,30.17,NNW,337,13.3,18.0,44,0.00,,,0.00,Rainwise IP-100,2013-01-26 22:01:00,
2013-01-26 17:06:00,26.8,11.0,30.17,NNW,337,11.4,20.8,44,0.00,,,0.00,Rainwise IP-100,2013-01-26 22:06:00,
2013-01-26 17:11:00,26.7,8.0,30.18,WNW,292,13.5,16.6,43,0.00,,,0.00,Rainwise IP-100,2013-01-26 22:11:00,
2013-01-26 17:16:00,26.6,11.0,30.19,NNW,337,9.8,15.4,44,0.00,,,0.00,Rainwise IP-100,2013-01-26 22:16:00,
2013-01-26 17:22:00,26.5,11.0,30.19,NNW,337,10.3,13.3,44,0.00,,,0.00,Rainwise IP-100,2013-01-26 22:22:00,
2013-01-26 17:27:00,26.4,8.0,30.20,NNW,337,9.1,13.3,45,0.00,,,0.00,Rainwise IP-100,2013-01-26 22:27:00,
2013-01-26 17:32:00,26.3,8.0,30.19,NNW,337,9.3,18.9,45,0.00,,,0.00,Rainwise IP-100,2013-01-26 22:32:00,
2013-01-26 17:37:00,26.1,8.0,30.20,NW,315,11.7,21.5,45,0.00,,,0.00,Rainwise IP-100,2013-01-26 22:37:00,
2013-01-26 17:42:00,25.8,8.0,30.19,NW,315,21.7,24.0,45,0.00,,,0.00,Rainwise IP-100,2013-01-26 22:42:00,
2013-01-26 17:47:00,25.6,8.0,30.21,NW,315,17.7,24.7,45,0.00,,,0.00,Rainwise IP-100,2013-01-26 22:47:00,
2013-01-26 17:52:00,25.3,8.0,30.21,NW,315,19.4,23.1,45,0.00,,,0.00,Rainwise IP-100,2013-01-26 22:52:00,
2013-01-26 17:58:00,25.1,8.0,30.21,NW,315,16.1,29.1,45,0.00,,,0.00,Rainwise IP-100,2013-01-26 22:58:00,
2013-01-26 18:03:00,24.9,8.0,30.21,WNW,292,13.3,26.3,44,0.00,,,0.00,Rainwise IP-100,2013-01-26 23:03:00,
2013-01-26 18:08:00,24.7,8.0,30.21,NW,315,18.0,25.6,44,0.00,,,0.00,Rainwise IP-100,2013-01-26 23:08:00,
2013-01-26 18:13:00,24.6,8.0,30.22,NNW,337,15.4,25.9,44,0.00,,,0.00,Rainwise IP-100,2013-01-26 23:13:00,
2013-01-26 18:18:00,24.4,8.0,30.23,NW,315,15.6,20.8,44,0.00,,,0.00,Rainwise IP-100,2013-01-26 23:18:00,
2013-01-26 18:23:00,24.3,8.0,30.23,NW,315,14.2,18.9,44,0.00,,,0.00,Rainwise IP-100,2013-01-26 23:23:00,
2013-01-26 18:28:00,24.2,8.0,30.24,NW,315,8.4,20.1,44,0.00,,,0.00,Rainwise IP-100,2013-01-26 23:28:00,
2013-01-26 18:33:00,24.1,8.0,30.25,WNW,292,19.4,19.4,45,0.00,,,0.00,Rainwise IP-100,2013-01-26 23:33:00,
2013-01-26 18:39:00,24.1,8.0,30.24,NW,315,13.8,24.5,45,0.00,,,0.00,Rainwise IP-100,2013-01-26 23:39:00,
2013-01-26 18:44:00,24.0,8.0,30.23,NW,315,14.7,23.1,45,0.00,,,0.00,Rainwise IP-100,2013-01-26 23:44:00,
2013-01-26 18:49:00,23.8,8.0,30.24,NW,315,11.2,21.5,45,0.00,,,0.00,Rainwise IP-100,2013-01-26 23:49:00,
2013-01-26 18:54:00,23.8,8.0,30.24,NW,315,12.4,17.5,46,0.00,,,0.00,Rainwise IP-100,2013-01-26 23:54:00,
2013-01-26 18:59:00,23.7,8.0,30.24,NW,315,12.1,19.4,46,0.00,,,0.00,Rainwise IP-100,2013-01-26 23:59:00,
2013-01-26 19:04:00,23.5,8.0,30.24,WNW,292,11.9,18.4,46,0.00,,,0.00,Rainwise IP-100,2013-01-27 00:04:00,
2013-01-26 19:09:00,23.4,4.0,30.24,NW,315,12.6,20.1,45,0.00,,,0.00,Rainwise IP-100,2013-01-27 00:09:00,
2013-01-26 19:14:00,23.3,4.0,30.25,NW,315,15.9,17.7,45,0.00,,,0.00,Rainwise IP-100,2013-01-27 00:14:00,
2013-01-26 19:20:00,23.2,8.0,30.24,WNW,292,11.7,20.1,46,0.00,,,0.00,Rainwise IP-100,2013-01-27 00:20:00,
2013-01-26 19:25:00,23.2,8.0,30.25,NNW,337,15.2,25.9,47,0.00,,,0.00,Rainwise IP-100,2013-01-27 00:25:00,
2013-01-26 19:30:00,23.1,8.0,30.25,NNW,337,11.7,19.1,46,0.00,,,0.00,Rainwise IP-100,2013-01-27 00:30:00,
2013-01-26 19:35:00,23.1,8.0,30.26,NW,315,9.1,17.7,47,0.00,,,0.00,Rainwise IP-100,2013-01-27 00:35:00,
2013-01-26 19:40:00,23.0,8.0,30.26,NNW,337,12.1,14.5,48,0.00,,,0.00,Rainwise IP-100,2013-01-27 00:40:00,
2013-01-26 19:45:00,22.9,8.0,30.26,NW,315,15.2,22.9,47,0.00,,,0.00,Rainwise IP-100,2013-01-27 00:45:00,
2013-01-26 19:50:00,22.8,8.0,30.26,NNW,337,14.7,20.1,47,0.00,,,0.00,Rainwise IP-100,2013-01-27 00:50:00,
2013-01-26 19:55:00,22.8,8.0,30.26,NW,315,9.8,20.1,47,0.00,,,0.00,Rainwise IP-100,2013-01-27 00:55:00,
2013-01-26 20:01:00,22.7,8.0,30.27,NW,315,9.8,16.3,48,0.00,,,0.00,Rainwise IP-100,2013-01-27 01:01:00,
2013-01-26 20:06:00,22.5,8.0,30.27,NW,315,10.0,16.3,48,0.00,,,0.00,Rainwise IP-100,2013-01-27 01:06:00,
2013-01-26 20:11:00,22.5,8.0,30.27,WNW,292,8.6,14.2,48,0.00,,,0.00,Rainwise IP-100,2013-01-27 01:11:00,
2013-01-26 20:16:00,22.4,8.0,30.28,NW,315,10.3,16.1,48,0.00,,,0.00,Rainwise IP-100,2013-01-27 01:16:00,
2013-01-26 20:21:00,22.3,8.0,30.27,WNW,292,17.3,17.3,49,0.00,,,0.00,Rainwise IP-100,2013-01-27 01:21:00,
2013-01-26 20:26:00,22.1,8.0,30.28,NW,315,5.1,18.7,48,0.00,,,0.00,Rainwise IP-100,2013-01-27 01:26:00,
2013-01-26 20:31:00,22.0,8.0,30.28,WNW,292,10.7,14.0,48,0.00,,,0.00,Rainwise IP-100,2013-01-27 01:31:00,
2013-01-26 20:37:00,22.0,8.0,30.28,WNW,292,11.2,16.3,49,0.00,,,0.00,Rainwise IP-100,2013-01-27 01:37:00,
2013-01-26 20:42:00,22.0,8.0,30.29,WNW,292,12.4,17.3,49,0.00,,,0.00,Rainwise IP-100,2013-01-27 01:42:00,
2013-01-26 20:47:00,21.9,8.0,30.30,WNW,292,12.6,15.9,49,0.00,,,0.00,Rainwise IP-100,2013-01-27 01:47:00,
2013-01-26 20:52:00,21.8,8.0,30.30,NW,315,12.8,16.6,49,0.00,,,0.00,Rainwise IP-100,2013-01-27 01:52:00,
2013-01-26 20:57:00,21.7,8.0,30.30,NW,315,9.8,16.6,49,0.00,,,0.00,Rainwise IP-100,2013-01-27 01:57:00,
2013-01-26 21:02:00,21.7,8.0,30.30,NW,315,9.8,14.2,49,0.00,,,0.00,Rainwise IP-100,2013-01-27 02:02:00,
2013-01-26 21:07:00,21.6,8.0,30.30,WNW,292,9.8,14.0,49,0.00,,,0.00,Rainwise IP-100,2013-01-27 02:07:00,
2013-01-26 21:12:00,21.6,8.0,30.31,NW,315,6.1,13.3,50,0.00,,,0.00,Rainwise IP-100,2013-01-27 02:12:00,
2013-01-26 21:17:00,21.6,8.0,30.31,WNW,292,9.8,11.9,50,0.00,,,0.00,Rainwise IP-100,2013-01-27 02:17:00,
2013-01-26 21:23:00,21.5,8.0,30.32,WNW,292,11.4,11.4,51,0.00,,,0.00,Rainwise IP-100,2013-01-27 02:23:00,
2013-01-26 21:28:00,21.5,8.0,30.32,NW,315,11.0,13.1,51,0.00,,,0.00,Rainwise IP-100,2013-01-27 02:28:00,
2013-01-26 21:33:00,21.3,8.0,30.32,WNW,292,7.5,14.5,51,0.00,,,0.00,Rainwise IP-100,2013-01-27 02:33:00,
2013-01-26 21:38:00,21.2,8.0,30.32,NNW,337,7.5,10.3,51,0.00,,,0.00,Rainwise IP-100,2013-01-27 02:38:00,
2013-01-26 21:43:00,21.2,8.0,30.32,WNW,292,9.3,12.8,51,0.00,,,0.00,Rainwise IP-100,2013-01-27 02:43:00,
2013-01-26 21:48:00,21.2,8.0,30.33,NW,315,5.4,10.0,52,0.00,,,0.00,Rainwise IP-100,2013-01-27 02:48:00,
2013-01-26 21:53:00,21.1,8.0,30.33,NW,315,8.9,11.7,52,0.00,,,0.00,Rainwise IP-100,2013-01-27 02:53:00,
2013-01-26 21:59:00,21.1,8.0,30.33,WNW,292,7.9,12.8,52,0.00,,,0.00,Rainwise IP-100,2013-01-27 02:59:00,
2013-01-26 22:04:00,21.0,8.0,30.33,NNW,337,8.4,13.5,52,0.00,,,0.00,Rainwise IP-100,2013-01-27 03:04:00,
2013-01-26 22:09:00,21.0,8.0,30.34,NW,315,7.9,12.8,52,0.00,,,0.00,Rainwise IP-100,2013-01-27 03:09:00,
2013-01-26 22:14:00,21.0,8.0,30.33,WNW,292,11.0,12.1,52,0.00,,,0.00,Rainwise IP-100,2013-01-27 03:14:00,
2013-01-26 22:19:00,20.9,8.0,30.33,NW,315,8.4,11.9,52,0.00,,,0.00,Rainwise IP-100,2013-01-27 03:19:00,
2013-01-26 22:24:00,20.9,8.0,30.34,NW,315,9.1,13.5,52,0.00,,,0.00,Rainwise IP-100,2013-01-27 03:24:00,
2013-01-26 22:29:00,20.9,8.0,30.34,WNW,292,7.2,10.7,53,0.00,,,0.00,Rainwise IP-100,2013-01-27 03:29:00,
2013-01-26 22:34:00,20.9,8.0,30.34,West,270,6.3,9.1,53,0.00,,,0.00,Rainwise IP-100,2013-01-27 03:34:00,
2013-01-26 22:40:00,20.8,8.0,30.35,WNW,292,8.2,10.5,54,0.00,,,0.00,Rainwise IP-100,2013-01-27 03:40:00,
2013-01-26 22:45:00,20.5,8.0,30.35,WNW,292,8.6,9.3,54,0.00,,,0.00,Rainwise IP-100,2013-01-27 03:45:00,
2013-01-26 22:50:00,20.4,8.0,30.35,WNW,292,6.3,10.7,55,0.00,,,0.00,Rainwise IP-100,2013-01-27 03:50:00,
2013-01-26 22:55:00,20.3,8.0,30.34,WNW,292,9.6,14.9,55,0.00,,,0.00,Rainwise IP-100,2013-01-27 03:55:00,
2013-01-26 23:00:00,20.2,8.0,30.34,NW,315,9.8,12.8,56,0.00,,,0.00,Rainwise IP-100,2013-01-27 04:00:00,
2013-01-26 23:05:00,20.2,8.0,30.34,WNW,292,11.2,14.2,56,0.00,,,0.00,Rainwise IP-100,2013-01-27 04:05:00,
2013-01-26 23:10:00,20.1,8.0,30.35,WNW,292,8.6,14.9,56,0.00,,,0.00,Rainwise IP-100,2013-01-27 04:10:00,
2013-01-26 23:16:00,20.1,8.0,30.34,WNW,292,11.7,14.5,57,0.00,,,0.00,Rainwise IP-100,2013-01-27 04:16:00,
2013-01-26 23:21:00,20.1,8.0,30.34,WNW,292,11.0,15.6,57,0.00,,,0.00,Rainwise IP-100,2013-01-27 04:21:00,
2013-01-26 23:26:00,20.0,8.0,30.35,WNW,292,11.0,14.5,57,0.00,,,0.00,Rainwise IP-100,2013-01-27 04:26:00,
2013-01-26 23:31:00,20.0,8.0,30.35,NW,315,9.6,14.5,57,0.00,,,0.00,Rainwise IP-100,2013-01-27 04:31:00,
2013-01-26 23:36:00,19.9,8.0,30.35,WNW,292,9.6,12.6,57,0.00,,,0.00,Rainwise IP-100,2013-01-27 04:36:00,
2013-01-26 23:41:00,19.9,8.0,30.35,WNW,292,11.2,14.0,57,0.00,,,0.00,Rainwise IP-100,2013-01-27 04:41:00,
2013-01-26 23:46:00,19.9,8.0,30.35,WNW,292,9.6,14.0,57,0.00,,,0.00,Rainwise IP-100,2013-01-27 04:46:00,
2013-01-26 23:51:00,19.9,8.0,30.36,WNW,292,8.9,14.5,57,0.00,,,0.00,Rainwise IP-100,2013-01-27 04:51:00,
2013-01-26 23:57:00,20.0,8.0,30.36,NW,315,9.6,11.4,58,0.00,,,0.00,Rainwise IP-100,2013-01-27 04:57:00,